EW0177 Weather Reports


time (UTC)temp
F
wind
direction
speed
knots
gust
knots
rain 1hr
in
rain 24hr
in
rain mn
in
humidity
%
barometer
mb
20260509074540 54 180 10.4 15.6 0.00 0.00 0.00 71 1003.4
20260509073518 54 180 9.6 13.9 0.00 0.00 0.00 73 1003.4
20260509072519 54 180 12.2 15.6 0.00 0.00 0.00 73 1003.6
20260509071519 54 180 9.6 15.6 0.00 0.00 0.00 75 1003.8
20260509070518 54 180 9.6 13.0 0.00 0.00 0.00 77 1004.1
20260509065518 54 180 7.8 11.3 0.00 0.00 0.00 77 1004.1
20260509064518 54 180 7.0 11.3 0.00 0.00 0.00 77 1004.2
20260509063518 53 180 7.0 11.3 0.00 0.00 0.00 76 1004.1
20260509062519 53 180 7.0 12.2 0.00 0.00 0.00 72 1004.3
20260509061519 52 180 6.1 8.7 0.00 0.00 0.00 65 1004.5
20260509060518 52 180 4.3 7.0 0.00 0.00 0.00 60 1004.5
20260509055518 52 158 5.2 7.8 0.00 0.00 0.00 57 1004.5
20260509054538 52 158 5.2 7.8 0.00 0.00 0.00 54 1004.6
20260509053538 51 180 5.2 8.7 0.00 0.00 0.00 54 1004.7
20260509052518 51 158 5.2 7.8 0.00 0.00 0.00 54 1004.7
20260509051518 51 158 5.2 7.0 0.00 0.00 0.00 53 1004.6
20260509050518 51 158 4.3 6.1 0.00 0.00 0.00 52 1004.6
20260509045518 51 158 4.3 5.2 0.00 0.00 0.00 52 1004.7
20260509044518 52 158 4.3 7.8 0.00 0.00 0.00 51 1004.8
20260509043518 52 158 5.2 7.8 0.00 0.00 0.00 50 1004.9
20260509042518 52 158 4.3 7.8 0.00 0.00 0.00 49 1004.9
20260509041518 52 158 4.3 6.1 0.00 0.00 0.00 49 1004.9
20260509040519 53 158 4.3 6.1 0.00 0.00 0.00 48 1005.0
20260509035558 53 158 3.5 5.2 0.00 0.00 0.00 47 1005.1
20260509035018 53 158 3.5 6.1 0.00 0.00 0.00 47 1005.2
20260509034018 53 158 4.3 6.1 0.00 0.00 0.00 47 1005.2
20260509033018 53 158 4.3 6.1 0.00 0.00 0.00 46 1005.3
20260509032058 53 158 4.3 7.0 0.00 0.00 0.00 45 1005.3
20260509031039 54 158 4.3 7.0 0.00 0.00 0.00 45 1005.5
20260509030018 54 158 3.5 6.1 0.00 0.00 0.00 44 1005.6
20260509025018 54 158 3.5 5.2 0.00 0.00 0.00 43 1005.8
20260509024018 54 158 3.5 5.2 0.00 0.00 0.00 42 1005.8
20260509023017 55 158 3.5 5.2 0.00 0.00 0.00 42 1005.9
20260509022019 55 158 3.5 5.2 0.00 0.00 0.00 40 1005.9
20260509021018 56 158 3.5 4.3 0.00 0.00 0.00 39 1005.9
20260509020059 56 158 4.3 7.0 0.00 0.00 0.00 38 1005.9
20260509015017 57 158 4.3 6.1 0.00 0.00 0.00 38 1005.9
20260509014038 57 158 3.5 5.2 0.00 0.00 0.00 36 1005.7
20260509013017 57 158 2.6 4.3 0.00 0.00 0.00 36 1005.7
20260509012038 57 158 2.6 5.2 0.00 0.00 0.00 36 1005.7
20260509011018 58 158 3.5 4.3 0.00 0.00 0.00 35 1005.5
20260509010017 58 158 2.6 3.5 0.00 0.00 0.00 35 1005.5
20260509005017 59 158 2.6 3.5 0.00 0.00 0.00 35 1005.5
20260509004018 59 158 1.7 2.6 0.00 0.00 0.00 35 1005.6
20260509003017 59 158 1.7 2.6 0.00 0.00 0.00 35 1005.6
20260509002017 60 180 2.6 4.3 0.00 0.00 0.00 34 1005.6
20260509001017 60 180 3.5 6.1 0.00 0.00 0.00 35 1005.8
20260509000017 61 203 3.5 5.2 0.00 0.00 0.00 38 1006.0
20260508235017 61 203 4.3 7.0 0.00 0.00 0.00 35 1006.0
20260508234017 62 203 4.3 6.1 0.00 0.00 0.00 33 1006.2
20260508233018 62 225 5.2 7.0 0.00 0.00 0.00 34 1006.4
20260508232037 62 225 6.1 7.8 0.00 0.00 0.00 32 1006.4
20260508231017 62 225 5.2 7.0 0.00 0.00 0.00 35 1006.5
20260508230018 63 225 5.2 8.7 0.00 0.00 0.00 34 1006.6
20260508225018 63 225 5.2 7.8 0.00 0.00 0.00 34 1006.5
20260508224139 63 225 6.1 9.6 0.00 0.00 0.00 35 1006.5
20260508223017 63 225 6.1 9.6 0.00 0.00 0.00 34 1006.5
20260508222018 63 225 5.2 9.6 0.00 0.00 0.00 37 1006.6
20260508221017 63 225 5.2 10.4 0.00 0.00 0.00 37 1006.6
20260508220018 63 225 4.3 7.8 0.00 0.00 0.00 37 1006.6
20260508215017 63 293 4.3 7.8 0.00 0.00 0.00 38 1006.6
20260508214037 63 225 3.5 7.0 0.00 0.00 0.00 36 1006.6
20260508213017 63 225 2.6 7.0 0.00 0.00 0.00 38 1006.6
20260508212017 63 225 6.1 8.7 0.00 0.00 0.00 37 1006.8
20260508211017 63 248 3.5 6.1 0.00 0.00 0.00 36 1007.0
20260508210018 63 248 6.1 9.6 0.00 0.00 0.00 37 1006.9
20260508205017 64 225 5.2 9.6 0.00 0.00 0.00 40 1007.1
20260508204017 63 225 4.3 8.7 0.00 0.00 0.00 37 1007.1
20260508203019 64 225 6.1 10.4 0.00 0.00 0.00 38 1007.3
20260508202019 64 270 4.3 8.7 0.00 0.00 0.00 36 1007.4
20260508201019 64 293 3.5 7.0 0.00 0.00 0.00 38 1007.5
20260508200019 63 225 4.3 7.0 0.00 0.00 0.00 36 1007.7
20260508195059 63 270 3.5 9.6 0.00 0.00 0.00 39 1007.9
20260508194020 62 225 5.2 10.4 0.00 0.00 0.00 38 1007.8
20260508193018 63 270 3.5 7.0 0.00 0.00 0.00 38 1008.0
20260508192019 63 270 5.2 8.7 0.00 0.00 0.00 37 1008.1
20260508191019 63 270 3.5 7.8 0.00 0.00 0.00 38 1008.1
20260508190019 63 248 3.5 7.0 0.00 0.00 0.00 37 1008.2
20260508185017 62 225 7.0 11.3 0.00 0.00 0.00 36 1008.2
20260508184019 62 248 2.6 7.8 0.00 0.00 0.00 36 1008.4
20260508183018 62 225 6.1 11.3 0.00 0.00 0.00 35 1008.5
20260508182019 62 225 6.1 11.3 0.00 0.00 0.00 35 1008.5
20260508181020 62 203 8.7 13.0 0.00 0.00 0.00 37 1008.6
20260508180019 62 225 7.8 13.0 0.00 0.00 0.00 38 1008.7
20260508175020 62 203 4.3 10.4 0.00 0.00 0.00 34 1008.9
20260508174019 62 225 7.0 10.4 0.00 0.00 0.00 35 1009.1
20260508173018 62 293 3.5 10.4 0.00 0.00 0.00 38 1009.2
20260508172018 62 180 3.5 7.0 0.00 0.00 0.00 38 1009.2
20260508171018 61 293 3.5 9.6 0.00 0.00 0.00 39 1009.5
20260508170018 61 225 6.1 11.3 0.00 0.00 0.00 40 1009.6
20260508165018 61 158 1.7 4.3 0.00 0.00 0.00 46 1009.7
20260508164018 60 225 6.1 13.0 0.00 0.00 0.00 43 1009.9
20260508163019 60 225 3.5 9.6 0.00 0.00 0.00 42 1010.1
20260508162019 60 203 3.5 7.0 0.00 0.00 0.00 44 1010.1
20260508161018 60 225 4.3 8.7 0.00 0.00 0.00 44 1010.2
20260508160018 59 180 2.6 7.8 0.00 0.00 0.00 45 1010.3
20260508155019 59 225 4.3 7.0 0.00 0.00 0.00 49 1010.2
20260508154018 59 293 2.6 6.1 0.00 0.00 0.00 45 1010.3
20260508153019 58 180 4.3 7.8 0.00 0.00 0.00 46 1010.3
20260508152019 57 180 5.2 9.6 0.00 0.00 0.00 52 1010.3
20260508151019 57 203 3.5 8.7 0.00 0.00 0.00 49 1010.3
20260508150018 57 203 7.0 9.6 0.00 0.00 0.00 50 1010.4
20260508145038 56 225 5.2 9.6 0.00 0.00 0.00 58 1010.6
20260508144018 56 225 2.6 6.1 0.00 0.00 0.00 60 1010.5
20260508143018 55 180 3.5 7.8 0.00 0.00 0.00 66 1010.6
20260508142019 55 180 3.5 5.2 0.00 0.00 0.00 68 1010.7
20260508141018 54 180 2.6 7.8 0.00 0.00 0.00 72 1010.7
20260508140018 53 180 2.6 5.2 0.00 0.00 0.00 76 1010.7
20260508135018 53 180 3.5 7.0 0.00 0.00 0.00 77 1010.7
20260508134018 52 180 4.3 6.1 0.00 0.00 0.00 78 1010.7
20260508133018 51 180 3.5 7.0 0.00 0.00 0.00 78 1010.8
20260508132018 50 180 3.5 6.1 0.00 0.00 0.00 77 1010.8
20260508131018 49 180 3.5 6.1 0.00 0.00 0.00 77 1010.8
20260508130040 48 180 2.6 5.2 0.00 0.00 0.00 77 1010.9
20260508125018 47 180 2.6 4.3 0.00 0.00 0.00 77 1010.8
20260508124018 45 180 3.5 5.2 0.00 0.00 0.00 76 1010.9
20260508123018 44 180 2.6 5.2 0.00 0.00 0.00 75 1010.9
20260508122018 43 180 0.9 2.6 0.00 0.00 0.00 76 1010.7
20260508121018 43 158 0.9 1.7 0.00 0.00 0.00 76 1010.5
20260508120018 42 158 0.9 1.7 0.00 0.00 0.00 77 1010.4
20260508115018 42 180 1.7 3.5 0.00 0.00 0.00 77 1010.4
20260508114018 41 180 1.7 3.5 0.00 0.00 0.00 78 1010.3
20260508113024 41 158 2.6 3.5 0.00 0.00 0.00 78 1010.2
20260508112018 41 158 1.7 2.6 0.00 0.00 0.00 79 1010.1
20260508111037 41 158 2.6 3.5 0.00 0.00 0.00 79 1010.1
20260508110018 41 158 2.6 4.3 0.00 0.00 0.00 79 1010.1
20260508105018 42 158 2.6 3.5 0.00 0.00 0.00 79 1010.2
20260508104018 42 158 1.7 2.6 0.00 0.00 0.00 79 1009.9
20260508103017 42 158 0.9 1.7 0.00 0.00 0.00 79 1009.9
20260508102017 42 113 0.9 1.7 0.00 0.00 0.00 79 1009.8
20260508101057 43 113 1.7 1.7 0.00 0.00 0.00 79 1009.9
20260508100017 43 0.0 1.7 0.00 0.00 0.00 79 1010.0
20260508095017 43 0.0 1.7 0.00 0.00 0.00 79 1010.0
20260508094017 43 45 0.9 1.7 0.00 0.00 0.00 79 1010.1
20260508093017 42 45 0.9 2.6 0.00 0.00 0.00 79 1010.1
20260508092018 42 68 0.9 1.7 0.00 0.00 0.00 79 1010.1
20260508091017 42 135 1.7 2.6 0.00 0.00 0.00 79 1010.2
20260508090018 42 135 1.7 2.6 0.00 0.00 0.00 79 1010.1
20260508085038 42 135 1.7 3.5 0.00 0.00 0.00 79 1010.1
20260508084017 43 158 2.6 4.3 0.00 0.00 0.00 78 1010.2
20260508083017 43 158 2.6 4.3 0.00 0.00 0.00 78 1010.2
20260508082017 43 0.0 1.7 0.00 0.00 0.00 78 1010.2
20260508081017 43 0.0 0.9 0.00 0.00 0.00 77 1010.2
20260508080037 44 0.0 0.9 0.00 0.00 0.00 77 1010.3